Regional Weather Roundup
Issued by NWS

Home | Current Version | Previous Version | Graphics & Text | Print | Product List | Glossary On
Versions: 1 2 3 4 5 6 7 8 9 10 11 12 13 14 15 16 17 18 19 20 21 22 23 24 25 26 27 28 29 30 31 32 33 34 35 36 37 38 39 40 41 42 43 44 45 46 47 48 49 50
000
ASUS43 KMKX 181910
RWRWI

WISCONSIN REGIONAL WEATHER ROUNDUP
NATIONAL WEATHER SERVICE MILWAUKEE/SULLIVAN WI
100 PM CST SUN FEB 18 2018

NOTE: "FAIR" INDICATES FEW OR NO CLOUDS BELOW 12,000 FEET WITH NO
SIGNIFICANT WEATHER AND/OR OBSTRUCTIONS TO VISIBILITY.

WIZ001-002-006>008-014>016-023>028-182000-
NORTHWEST WISCONSIN

CITY           SKY/WX    TMP DP  RH WIND       PRES   REMARKS
SUPERIOR ARPT  CLOUDY    23  13  67 NE13G21   29.76F WCI  11
ASHLAND        CLOUDY    26  10  50 E9        29.72F WCI  17
HAYWARD        CLOUDY    29  16  58 S16G24    29.68F WCI  17
SIREN          CLOUDY    33  22  63 S12G20    29.67R WCI  24
CUMBERLAND     CLOUDY    30  21  69 SE21G26   29.66F WCI  17
RICE LAKE      FAIR      32  24  71 SE24G32   29.70F WCI  19
CHETEK         CLOUDY    32  23  68 SE16G24   29.72F WCI  21
LADYSMITH      CLOUDY    32  21  63 SE18G32   29.76F WCI  20
EAU CLAIRE     PTSUNNY   37  26  64 S23G38    29.75F WCI  26
MENOMONIE      FAIR      37  25  64 SE16      29.74F WCI  27
NEW RICHMOND   CLOUDY    36  25  65 S20G29    29.65F WCI  25
OSCEOLA        FAIR      36  27  68 S17G26    29.69R WCI  26
$$

WIZ003>005-009-010-017-018-182000-
NORTH CENTRAL WISCONSIN

CITY           SKY/WX    TMP DP  RH WIND       PRES   REMARKS
MANITOWISH WTR CLOUDY    24  11  59 SE16G29   29.80F WCI  11
ARBOR VITAE    CLOUDY    27  13  57 SE15G26   29.82F WCI  15
WOODRUFF       CLOUDY    27  13  57 SE15G26   29.82F WCI  15
RHINELANDER    CLOUDY    26  14  60 S12G24    29.87F WCI  16
EAGLE RIVER    FAIR      25   8  48 S8G20     29.86F WCI  16
LAND O LAKES   CLOUDY    25   9  51 S15G21    29.87F WCI  12
PHILLIPS       CLOUDY    28  17  62 S20G30    29.77F WCI  15
TOMAHAWK       CLOUDY    28  15  60 SE7       29.86F WCI  20
MEDFORD        FAIR      29  19  66 SE13G21   29.83F WCI  19
MERRILL        CLOUDY    29  18  61 S12G20    29.90F WCI  20
$$

WIZ029-030-035-036-043>047-182000-
CENTRAL WISCONSIN

CITY           SKY/WX    TMP DP  RH WIND       PRES   REMARKS
WAUSAU         PTSUNNY   30  20  66 SE18G28   29.89F WCI  18
MOSINEE        CLOUDY    30  21  69 SE17G28   29.92F WCI  18
MARSHFIELD     CLOUDY    34  24  67 S28G37    29.86F WCI  21
STEVENS POINT  FAIR      34  21  59 S18G25    29.94F WCI  23
WAUPACA        FAIR      37  23  57 S15G21    30.02F WCI  28
WAUTOMA        FAIR      36  22  56 S15       30.00F WCI  27
WISC RAPIDS    FAIR      37  21  52 S15G25    29.93F WCI  28
CAMP DOUGLAS   CLOUDY    39  27  60 S18G29    29.91F WCI  30
$$

WIZ011>013-019>022-031-037>040-048>050-182000-
NORTHEAST WISCONSIN

CITY           SKY/WX    TMP DP  RH WIND       PRES   REMARKS
ANTIGO         FAIR      25  17  73 SE20G26   29.93F WCI  10
SHAWANO        FAIR      35  20  55 S10G20    30.04F WCI  27
OCONTO         FAIR      30  17  58 S12       30.08F WCI  20
STURGEON BAY   FAIR      31  22  69 S15G23    30.09F WCI  20
GREEN BAY      PTSUNNY   34  22  61 S15       30.07F WCI  24
MANITOWOC      FAIR      34  28  79 S18G31    30.11F WCI  23
APPLETON       PTSUNNY   36  19  51 S17       30.04F WCI  25
CLINTONVILLE   FAIR      33  22  62 S13       30.03F WCI  24
OSHKOSH        FAIR      38  25  59 S21G26    30.05F WCI  28
$$

WIZ032>034-041-042-053>061-182000-
SOUTHWEST WISCONSIN

CITY           SKY/WX    TMP DP  RH WIND       PRES   REMARKS
LA CROSSE      CLOUDY    39  28  64 S22G36    29.83F WCI  29
SPARTA         PTSUNNY   37  27  65 S16G28    29.87F WCI  28
VIROQUA        CLOUDY    35  28  74 SE22G33   29.87F WCI  24
BOSCOBEL       FAIR      36  26  67 S8        29.96F WCI  30
PRAIRIE DU CHI FAIR      38  25  60 SE17G23   29.92F WCI  28
PLATTEVILLE    FAIR      32  32 100 SE20      29.98F WCI  21
$$

WIZ056-057-062-063-064-067-068-182000-
SOUTH CENTRAL WISCONSIN

CITY           SKY/WX    TMP DP  RH WIND       PRES   REMARKS
REEDSBURG      FAIR      35  24  65 S14G25    29.98F WCI  25
BARABOO/DELLS  FAIR      33  24  68 S22G28    29.98F WCI  21
LONE ROCK      FAIR      35  26  69 SE14G22   29.99F WCI  26
MINERAL POINT  FAIR      32  32 100 SE20      29.97F WCI  20
MADISON        PTSUNNY   31  24  75 S20G28    30.05F WCI  19
MIDDLETON      FAIR      33  25  71 S14       30.03F WCI  24
WATERTOWN      FAIR      32  24  72 S15       30.08F WCI  22
MONROE         FAIR      30  28  93 SE18G25   30.04F WCI  18
JANESVILLE     PTSUNNY   34  25  69 S15G21    30.09F WCI  24
$$

WIZ051-052-058>065-066-070>072-182000-
SOUTHEAST WISCONSIN

CITY           SKY/WX    TMP DP  RH WIND       PRES   REMARKS
MILWAUKEE      PTSUNNY   37  24  59 S17G25    30.14F WCI  27
WAUKESHA       SUNNY     34  21  60 S15G25    30.13F WCI  24
MILWAUKEE/TIMM SUNNY     36  21  55 S14       30.14F WCI  27
RACINE         FAIR      35  26  69 S15       30.16F WCI  25
BURLINGTON     FAIR      33  24  69 S12G21    30.13F WCI  24
KENOSHA        FAIR      37  24  59 S15G24    30.15F WCI  28
FOND DU LAC    FAIR      37  22  54 S20G28    30.06F WCI  27
SHEBOYGAN      FAIR      33  27  78 S18       30.10F WCI  22
WEST BEND      FAIR      36  23  60 S15G23    30.10F WCI  26
JUNEAU         FAIR      32  23  69 S21G26    30.08F WCI  20
$$

LSZ147-162-182000-
LAKE SUPERIOR

STATION/POSITION TIME  TEMP    WIND        PRES    WAVE
                       AIR SEA DIR/SP/G            HT/PER
                 (UTC) (F)     (DEG/KT/KT) (MB)    (FT/S)
DEVILS ISLAND    1900   21      70/ 16/ 19 1011.2F
SAXON HARBOR     1840   27     160/  5/ 12 1008.8F
$$

LMZ867-665-643>646-182000-
LAKE MICHIGAN

STATION/POSITION TIME  TEMP    WIND        PRES    WAVE
                       AIR SEA DIR/SP/G            HT/PER
                 (UTC) (F)     (DEG/KT/KT) (MB)    (FT/S)
NORTHPORT PIER   1840   30                 1019.6F
KEWAUNEE LAKESHO 1842   31     170/ 18/ 21 1019.3F
SHEBOYGAN LAKESH 1900   32     170/ 25/ 28 1020.1F
PORT WASHINGTON  1830   33     180/ 17/ 21 1021.7F
MILWAUKEE LAKESH 1850   35     180/ 14/ 15   N/A
KENOSHA   LAKESH 1900   32     170/ 20/ 23 1021.0
$$

TC  - TEMPERATURE IN CELSIUS
VSB - VISIBILITY IN STATUTE MILES
WCI - WIND CHILL INDEX
HX  - HEAT INDEX




USA.gov is the U.S. government's official web portal to all federal, state and local government web resources and services.